This is the latest recevied weather packets stored in our database for station/object HK4DAP-11. If no packets are shown the sender has not sent any weather packets the latest 10 day(s).
| Time | Temp. | Humidity | Pressure | Rain* | Wind** | Luminosity | Snow |
|---|---|---|---|---|---|---|---|
| 1777247449 | 27.22° C | 62% | 850 hPa | - | - | - | - |
| 1777247149 | 27.22° C | 61% | 850 hPa | - | - | - | - |
| 1777246849 | 27.22° C | 61% | 850.2 hPa | - | - | - | - |
| 1777246549 | 27.22° C | 61% | 850.2 hPa | - | - | - | - |
| 1777246249 | 27.22° C | 61% | 850.2 hPa | - | - | - | - |
| 1777245948 | 27.22° C | 62% | 850.2 hPa | - | - | - | - |
| 1777245648 | 27.22° C | 61% | 850.2 hPa | - | - | - | - |
| 1777245348 | 27.22° C | 63% | 850.1 hPa | - | - | - | - |
| 1777245048 | 27.22° C | 63% | 849.9 hPa | - | - | - | - |
| 1777244748 | 27.22° C | 63% | 849.8 hPa | - | - | - | - |
| 1777244448 | 27.22° C | 62% | 849.8 hPa | - | - | - | - |
| 1777244147 | 27.22° C | 63% | 849.7 hPa | - | - | - | - |
| 1777243849 | 27.22° C | 63% | 849.5 hPa | - | - | - | - |
| 1777243547 | 25.56° C | 68% | 849.4 hPa | - | - | - | - |
| 1777243247 | 26.67° C | 63% | 849.2 hPa | - | - | - | - |
| 1777242947 | 27.22° C | 64% | 849 hPa | - | - | - | - |
| 1777242647 | 27.22° C | 64% | 848.9 hPa | - | - | - | - |
| 1777242347 | 26.67° C | 64% | 848.7 hPa | - | - | - | - |
| 1777242046 | 27.22° C | 64% | 848.6 hPa | - | - | - | - |
| 1777241746 | 27.22° C | 64% | 848.6 hPa | - | - | - | - |
| 1777241446 | 27.22° C | 64% | 848.7 hPa | - | - | - | - |
| 1777241146 | 27.22° C | 61% | 848.8 hPa | - | - | - | - |
| 1777240847 | 27.22° C | 61% | 848.8 hPa | - | - | - | - |
| 1777240547 | 26.67° C | 62% | 848.8 hPa | - | - | - | - |
| 1777240246 | 26.67° C | 62% | 848.8 hPa | - | - | - | - |
* Rain since midnight (hover to see other rain measurements)
** Current wind speed in m/s (hover to see current wind gust speed)